Location: Crescent
(42.8242°N, 73.7329°W)
Time: 07:31:54
(UTC+00:00)

Vanguard 1 Rocket - Pass Details

Date: 22 February 2026
Orbit: 653 x 4214 km, 34.3° (Epoch: 12 March)

Event Time Altitude Azimuth Distance (km) Brightness Sun altitude
Rises 21:13:55 0° 272° (W) 5,053 12.3 13.2°
Reaches altitude 10° 21:16:42 10° 267° (W) 4,415 12.4 12.8°
Maximum altitude 21:29:23 52° 196° (SSW) 3,475 10.9 10.7°
Drops below altitude 10° 21:51:28 10° 129° (SE) 7,271 11.7 6.9°
Sets 21:57:49 0° 125° (SE) 8,436 12.0 5.8°
